Regional Weather Roundup
Issued by NWS

Home | Current Version | Previous Version | Text Only | Print | Product List | Glossary On
Versions: 1 2 3 4 5 6 7 8 9 10 11 12 13 14 15 16 17 18 19 20 21 22 23 24 25 26 27 28 29 30 31 32 33 34 35 36 37 38 39 40 41 42 43 44 45 46 47 48 49 50
000
ASUS43 KDTX 101401
RWRMI
MICHIGAN HOURLY REGIONAL WEATHER ROUNDUP
NATIONAL WEATHER SERVICE DETROIT/PONTIAC MI
1000 AM EDT THU JUL 10 2014

NOTE: "FAIR" INDICATES FEW OR NO CLOUDS BELOW 12,000 FEET WITH NO
SIGNIFICANT WEATHER AND/OR OBSTRUCTION TO VISIBILITY.

MIZ047>049-052>055-059>063-066>070-074>076-081>083-101500-
SOUTHEAST LOWER MICHIGAN

CITY           SKY/WX    TMP DP  RH WIND       PRES   REMARKS
ADRIAN         SUNNY     69  55  60 N8        30.15R
ALMA           SUNNY     64  48  57 NE7       30.18S
ANN ARBOR      MOSUNNY   71  56  58 VRB3      30.14R
BAD AXE        PTSUNNY   63  56  80 NE8       30.17S
CARO           MOSUNNY   67  60  76 N5        30.17R
DETROIT CITY   SUNNY     73  55  53 NE5       30.14R
DETROIT        MOSUNNY   72  56  57 VRB5      30.14R
FLINT          SUNNY     68  54  60 NE8       30.16R
GROSSE ILE     MOSUNNY   72  61  68 NE6       30.12S
HILLSDALE      SUNNY     66  57  72 CALM      30.16R
HOWELL         SUNNY     64  56  76 NE6       30.16R

CITY           SKY/WX    TMP DP  RH WIND       PRES   REMARKS
JACKSON        SUNNY     66  57  72 NE7       30.16R
LAMBERTVILLE   PTSUNNY   70  57  64 N3        30.14R
LANSING        SUNNY     65  56  72 NE5       30.17S
LAPEER         FAIR      65  56  72 N5        30.16S
MASON          SUNNY     64  56  77 N5        30.16S
MONROE         PTSUNNY   72  59  64 N7        30.12R
MT. CLEMENS    MOSUNNY   70  58  66 NE6       30.13R
PONTIAC        MOSUNNY   68  54  60 N5        30.14S
PORT HOPE        N/A     62  50  64 NE12      30.17R
PORT HURON     SUNNY     68  59  73 NE3       30.15S
TRI CITIES     SUNNY     65  54  67 NE6       30.18R
TROY           SUNNY     69  55  61 E3        30.15S
SAGINAW HB     SUNNY     64  54  68 N8        30.17R
$$
MIZ043>046-050>051-056>058-064>065-071>073-077>080-101500-
SOUTHWEST LOWER MICHIGAN

CITY           SKY/WX    TMP DP  RH WIND       PRES   REMARKS
BATTLE CREEK   SUNNY     65  54  67 NE7       30.17R
BENTON HARBOR  SUNNY     66  55  67 E7        30.16S
BIG RAPIDS     SUNNY     62  48  60 CALM      30.19R
COLDWATER      SUNNY     66  56  70 N7        30.16S
FREMONT        FAIR      64  51  64 CALM      30.18S
HOLLAND        SUNNY     69  55  60 N5        30.18R
GRAND RAPIDS   SUNNY     65  56  72 NE3       30.18R
IONIA          FAIR      63  53  71 NE7       30.17S
KALAMAZOO      SUNNY     66  53  63 N5        30.17R
LUDINGTON      SUNNY     62  53  71 CALM      30.18S
MARSHALL       SUNNY     63  55  76 NE3       30.16S
MOUNT PLEASANT SUNNY     63  50  63 NW6       30.18S
MUSKEGON       MOSUNNY   67  54  63 NE5       30.18R
SOUTH HAVEN    SUNNY     66  57  73 E3        30.17R
$$
MIZ016>042-101500-
NORTHERN LOWER MICHIGAN

CITY           SKY/WX    TMP DP  RH WIND       PRES   REMARKS
ALPENA         SUNNY     64  49  57 VRB5      30.18S
BEAVER ISLAND  SUNNY     64  53  67 SW3       30.18S
BELLAIRE       SUNNY     62  51  65 CALM      30.19R
CADILLAC       SUNNY     62  47  57 N7        30.19R
CHARLEVOIX     SUNNY     64  52  64 W3        30.22R
FRANKFORT      SUNNY     65  53  63 CALM      30.18S
GAYLORD        SUNNY     60  45  57 VRB3      30.20R
GRAYLING       SUNNY     60  44  55 N5        30.20R
HARBOR SPRINGS SUNNY     60  52  76 CALM      30.18S
HOUGHTON LAKE  SUNNY     61  44  53 N6        30.19S
MANISTEE       SUNNY     55  54  94 CALM      30.20S
OSCODA         SUNNY     64  51  63 NE5       30.17S
PELLSTON       SUNNY     63  48  58 W5        30.19R
ROGERS CITY    SUNNY     62  50  64 NW6       30.19S
TRAVERSE CITY  SUNNY     65  47  52 CALM      30.18S
$$
MIZ007>008-015-101500-
EASTERN UPPER MICHIGAN

CITY           SKY/WX    TMP DP  RH WIND       PRES   REMARKS
KINROSS        SUNNY     61  48  63 CALM      30.18R
MACKINAC ISLAN SUNNY     60  49  67 CALM      30.18R
NEWBERRY       SUNNY     62  51  66 W9        30.17S
S. S. MARIE    SUNNY     60  47  61 VRB3      30.17R
$$
MIZ004>006-011>014-085-101500-
CENTRAL UPPER MICHIGAN

CITY           SKY/WX    TMP DP  RH WIND       PRES   REMARKS
MANISTIQUE     SUNNY     62  54  74 S5        30.17S
ESCANABA       SUNNY     64  54  68 SE7       30.16S
MENOMINEE      SUNNY     64  55  72 S3        30.16R
SAWYER-GWINN   SUNNY     63  50  63 W6        30.16R
$$
MIZ001>003-009>011-084-101500-
WESTERN UPPER MICHIGAN

CITY           SKY/WX    TMP DP  RH WIND       PRES   REMARKS
IRON MOUNTAIN  SUNNY     63  51  65 CALM      30.15S
HOUGHTON       SUNNY     64  51  62 S3        30.11S
COPPER HARBOR    N/A     65  49  56 CALM      30.10S
$$

ABBREVIATIONS USED IN REMARKS
   TC - TEMPERATURE IN CELSIUS
  WCI - WIND CHILL INDEX
   HX - HEAT INDEX
  VSB - VISIBILITY



USA.gov is the U.S. government's official web portal to all federal, state and local government web resources and services.